Santa Rosa, CA

7:11 AM PDT on August 22, 2017 (GMT -0700)
Sonoma County

Weather History for KSTS - March, 2013

Change the Weather History Date:

Tuesday, March 5, 2013

  Actual Average Record
Temperature  
Mean Temperature 45 °F 52 °F  
Max Temperature 55 °F 63 °F 74 °F (2005)
Min Temperature 34 °F 41 °F 33 °F (2003)
Degree Days  
Heating Degree Days 20    
Month to date heating degree days 61  
Since 1 July heating degree days 2138  
Cooling Degree Days 0    
Month to date cooling degree days 0  
Year to date cooling degree days 0  
Moisture  
Dew Point 39 °F    
Average Humidity 82    
Maximum Humidity 100    
Minimum Humidity 64    
Precipitation  
Precipitation 0.37 in 0.21 in 2.68 in (2006)
Month to date precipitation 0.37 1.16  
Year to date precipitation 1.56 14.61  
Since 1 July precipitation 23.97  
Sea Level Pressure  
Sea Level Pressure 29.97 in    
Wind  
Wind Speed 8 mph (South)    
Max Wind Speed 28 mph    
Max Gust Speed 37 mph    
Visibility 6 miles    
Events Fog , Rain    
T = Trace of Precipitation, MM = Missing Value Source: NWS Daily Summary

Daily Weather History Graph

Daily Weather History Graph

Search for Another Location

Airport or City:

Trip Planner

Search our weather history database for the weather conditions in past years. The results will help you decide how hot, cold, wet, or windy it might be!

Date:

Astronomy

Mar. 05, 2013 Rise Set
Actual Time 6:37 AM PST 6:08 PM PST
Civil Twilight 6:10 AM PST 6:35 PM PST
Nautical Twilight 5:39 AM PST 7:05 PM PST
Astronomical Twilight 5:09 AM PST 7:36 PM PST
Moon 1:51 AM PST (3/5) 11:56 AM PST (3/5)
Length of Visible Light 12h 24m
Length of Day
11h 31m
Last Quarter, 39% of the Moon is Illuminated
Mar 5
Last Quarter
Mar 11
New
Mar 19
First Quarter
Mar 27
Full
Apr 2
Last Quarter

Hourly Weather History & Observations

Time (PST) Temp. Windchill Dew Point Humidity Pressure Visibility Wind Dir Wind Speed Gust Speed Precip Events Conditions
12:53 AM 37.0 °F - 35.1 °F 93% 30.05 in 4.0 mi Calm Calm - N/A   Clear
1:16 AM 35.6 °F - 33.8 °F 93% 30.07 in 1.0 mi Calm Calm - N/A   Mist
1:18 AM 33.8 °F - 33.8 °F 100% 30.07 in 0.8 mi Calm Calm - N/A   Mist
1:26 AM 35.6 °F - 33.8 °F 93% 30.07 in 1.0 mi Calm Calm - N/A   Mist
1:33 AM 37.4 °F - 35.6 °F 93% 30.07 in 1.0 mi Calm Calm - N/A   Mist
1:41 AM 35.6 °F 32.8 °F 35.6 °F 100% 30.07 in 0.2 mi NW 3.5 mph - N/A Fog Fog
1:53 AM 35.1 °F - 33.1 °F 92% 30.06 in 0.2 mi Calm Calm - N/A Fog Fog
2:12 AM 35.6 °F - 33.8 °F 93% 30.06 in 0.8 mi Calm Calm - N/A   Mist
2:22 AM 35.6 °F - 33.8 °F 93% 30.06 in 0.5 mi Calm Calm - N/A Fog Fog
2:42 AM 33.8 °F - 33.8 °F 100% 30.05 in 4.0 mi Calm Calm - N/A   Overcast
2:53 AM 35.1 °F - 33.1 °F 92% 30.04 in 8.0 mi Calm Calm - N/A   Overcast
3:17 AM 35.6 °F 31.7 °F 33.8 °F 93% 30.05 in 2.0 mi WSW 4.6 mph - N/A   Overcast
3:32 AM 37.4 °F - 37.4 °F 100% 30.06 in 5.0 mi Calm Calm - N/A   Overcast
3:37 AM 37.4 °F - 37.4 °F 100% 30.06 in 2.5 mi Calm Calm - N/A   Overcast
3:53 AM 37.0 °F - 36.0 °F 96% 30.04 in 1.8 mi Calm Calm - N/A   Overcast
4:05 AM 37.4 °F 34.9 °F 35.6 °F 93% 30.06 in 2.5 mi ESE 3.5 mph - N/A   Overcast
4:20 AM 37.4 °F - 35.6 °F 93% 30.05 in 7.0 mi Calm Calm - N/A   Overcast
5:00 AM 39.2 °F - 37.4 °F 93% 30.05 in 7.0 mi Calm Calm - N/A   Overcast
5:08 AM 39.2 °F 37.0 °F 37.4 °F 93% 30.05 in 7.0 mi WSW 3.5 mph - N/A   Overcast
5:41 AM 39.2 °F - 37.4 °F 93% 30.05 in 2.5 mi Calm Calm - N/A   Overcast
5:53 AM 39.0 °F - 39.0 °F 100% 30.03 in 2.0 mi Calm Calm - N/A   Overcast
6:21 AM 39.2 °F - 37.4 °F 93% 30.05 in 3.0 mi Calm Calm - N/A   Overcast
6:53 AM 39.9 °F - 39.0 °F 97% 30.04 in 5.0 mi Calm Calm - N/A   Overcast
7:53 AM 41.0 °F - 39.9 °F 96% 30.04 in 5.0 mi Calm Calm - N/A   Overcast
8:53 AM 44.1 °F - 41.0 °F 89% 30.03 in 5.0 mi Calm Calm - N/A   Overcast
9:53 AM 48.0 °F - 41.0 °F 77% 30.02 in 7.0 mi Variable 4.6 mph - N/A   Overcast
10:53 AM 48.0 °F - 41.0 °F 77% 30.02 in 10.0 mi Calm Calm - N/A   Overcast
11:53 AM 50.0 °F - 41.0 °F 71% 30.00 in 10.0 mi South 8.1 mph - N/A   Overcast
12:53 PM 52.0 °F - 41.0 °F 66% 29.97 in 10.0 mi South 9.2 mph - N/A   Overcast
1:53 PM 53.1 °F - 41.0 °F 64% 29.93 in 10.0 mi South 9.2 mph - N/A   Overcast
2:53 PM 54.0 °F - 41.0 °F 62% 29.91 in 10.0 mi SE 15.0 mph - N/A   Overcast
3:00 PM 53.6 °F - 41.0 °F 62% 29.92 in 10.0 mi SSE 12.7 mph - N/A   Overcast
3:53 PM 54.0 °F - 43.0 °F 66% 29.88 in 10.0 mi SSE 9.2 mph - N/A   Overcast
4:27 PM 53.6 °F - 42.8 °F 67% 29.88 in 10.0 mi SSE 12.7 mph 17.3 mph N/A   Overcast
4:53 PM 53.1 °F - 42.1 °F 66% 29.85 in 10.0 mi SSE 17.3 mph - N/A   Overcast
5:34 PM 51.8 °F - 42.8 °F 71% 29.85 in 10.0 mi SSE 15.0 mph 20.7 mph N/A   Overcast
5:53 PM 51.1 °F - 41.0 °F 68% 29.83 in 10.0 mi SSE 13.8 mph 20.7 mph N/A   Overcast
6:53 PM 51.1 °F - 41.0 °F 68% 29.82 in 10.0 mi South 13.8 mph - N/A   Overcast
7:53 PM 48.9 °F - 44.1 °F 83% 29.79 in 8.0 mi SSE 10.4 mph 18.4 mph 0.04 in Rain Light Rain
8:53 PM 48.9 °F - 45.0 °F 86% 29.78 in 6.0 mi SSE 13.8 mph 21.9 mph 0.13 in Rain Rain
9:53 PM 48.9 °F - 45.0 °F 86% 29.76 in 5.0 mi SSE 16.1 mph 26.5 mph 0.09 in Rain Rain
10:53 PM 48.9 °F - 46.0 °F 90% 29.75 in 5.0 mi South 26.5 mph 36.8 mph 0.07 in Rain Light Rain
11:14 PM 50.0 °F - 46.4 °F 87% 29.78 in 4.0 mi South 19.6 mph 27.6 mph 0.02 in Rain Light Rain
11:53 PM 51.1 °F - 46.9 °F 86% 29.75 in 10.0 mi South 20.7 mph 34.5 mph 0.03 in Rain Light Rain